Location: Dackenheim
(49.5215°N, 8.1854°E)
Time: 01:30:16
(UTC+00:00)

ARIANE 5 R/B - Pass Details

Date: 19 May 2025
Orbit: 615 x 647 km, 98.0° (Epoch: 20 June)

Event Time Altitude Azimuth Distance (km) Brightness Sun altitude
Exits shadow 21:23:52 18° 108° (ESE) 1,517 4.1 -15.6°
Maximum altitude 21:26:02 28° 64° (ENE) 1,189 4.0 -15.8°
Drops below altitude 10° 21:29:43 10° 6° (N) 2,007 6.0 -16.0°
Sets 21:32:10 0° 355° (N) 2,924 7.3 -16.2°
